When you browse on this site, cookies collect data to enhance your experience and personalize the content and advertising you see.
Visit our Privacy Policy to learn more. By continuing to use the site, you agree to this use of cookies and data.

Stündliche Wetter Atitalaquia

Heute, 20 September, Sonntag

Zeit Temperatur Niederschläge Wind Luftdruck Luftfeuchtigkeit
00:00 +11°C° 0 mm 0 m/S 593 mmHg 90%
01:00 +10°C° 0 mm 0 m/S 592 mmHg 90%
02:00 +10°C° 0 mm 0 m/S 592 mmHg 90%
03:00 +10°C° 0 mm 0 m/S 592 mmHg 89%
04:00 +10°C° 0 mm 0 m/S 592 mmHg 88%
05:00 +10°C° 0 mm 0 m/S 592 mmHg 87%
06:00 +12°C° 0 mm 0 m/S 593 mmHg 80%
07:00 +14°C° 0 mm 1 m/S 594 mmHg 73%
08:00 +16°C° 0 mm 1 m/S 595 mmHg 67%
09:00 +19°C° 0 mm 1 m/S 595 mmHg 63%
10:00 +19°C° 0 mm 2 m/S 596 mmHg 59%
11:00 +21°C° 0 mm 3 m/S 596 mmHg 56%
12:00 +21°C° 0 mm 4 m/S 596 mmHg 57%
13:00 +21°C° 0 mm 4 m/S 595 mmHg 59%
14:00 +22°C° 0 mm 5 m/S 595 mmHg 61%
15:00 +20°C° 0 mm 5 m/S 594 mmHg 65%
16:00 +19°C° 0 mm 4 m/S 594 mmHg 70%
17:00 +18°C° 0 mm 4 m/S 593 mmHg 74%
18:00 +17°C° 0 mm 3 m/S 594 mmHg 79%
19:00 +16°C° 0 mm 2 m/S 594 mmHg 83%
20:00 +14°C° 0 mm 1 m/S 594 mmHg 88%
21:00 +14°C° 0 mm 1 m/S 594 mmHg 89%
22:00 +14°C° 0 mm 1 m/S 594 mmHg 90%
23:00 +13°C° 0 mm 0 m/S 594 mmHg 91%

Morgen, 21 September, Montag

Zeit Temperatur Niederschläge Wind Luftdruck Luftfeuchtigkeit
00:00 +12°C° 0 mm 0 m/S 593 mmHg 92%
01:00 +12°C° 0 mm 0 m/S 593 mmHg 93%
02:00 +11°C° 0 mm 0 m/S 592 mmHg 94%
03:00 +11°C° 0 mm 0 m/S 592 mmHg 94%
04:00 +11°C° 0 mm 0 m/S 592 mmHg 94%
05:00 +11°C° 0 mm 0 m/S 592 mmHg 94%
06:00 +13°C° 0 mm 0 m/S 593 mmHg 87%
07:00 +15°C° 0 mm 0 m/S 594 mmHg 79%
08:00 +18°C° 0 mm 1 m/S 595 mmHg 72%
09:00 +20°C° 0 mm 1 m/S 596 mmHg 66%
10:00 +21°C° 0 mm 2 m/S 596 mmHg 60%
11:00 +22°C° 0 mm 3 m/S 596 mmHg 54%
12:00 +24°C° 0.2 mm 3 m/S 596 mmHg 52%
13:00 +23°C° 0.2 mm 4 m/S 596 mmHg 50%
14:00 +25°C° 0.2 mm 5 m/S 595 mmHg 49%
15:00 +22°C° 0 mm 4 m/S 595 mmHg 54%
16:00 +21°C° 0 mm 4 m/S 594 mmHg 58%
17:00 +20°C° 0 mm 3 m/S 594 mmHg 63%
18:00 +18°C° 0 mm 2 m/S 594 mmHg 71%
19:00 +17°C° 0 mm 2 m/S 594 mmHg 79%
20:00 +15°C° 0 mm 1 m/S 594 mmHg 86%
21:00 +15°C° 0 mm 1 m/S 594 mmHg 89%
22:00 +13°C° 0 mm 0 m/S 594 mmHg 91%
23:00 +13°C° 0 mm 0 m/S 594 mmHg 93%

übermorgen, 22 September, Dienstag

Zeit Temperatur Niederschläge Wind Luftdruck Luftfeuchtigkeit
00:00 +12°C° 0 mm 0 m/S 593 mmHg 93%
01:00 +12°C° 0 mm 0 m/S 593 mmHg 93%
02:00 +13°C° 0 mm 1 m/S 592 mmHg 93%
03:00 +12°C° 0 mm 0 m/S 592 mmHg 92%
04:00 +11°C° 0 mm 0 m/S 592 mmHg 91%
05:00 +11°C° 0 mm 0 m/S 592 mmHg 90%
06:00 +13°C° 0 mm 0 m/S 594 mmHg 81%
07:00 +15°C° 0 mm 0 m/S 595 mmHg 72%
08:00 +17°C° 0 mm 0 m/S 596 mmHg 64%
09:00 +21°C° 0 mm 1 m/S 596 mmHg 56%
10:00 +23°C° 0 mm 2 m/S 597 mmHg 48%
11:00 +24°C° 0 mm 3 m/S 597 mmHg 41%
12:00 +25°C° 0 mm 3 m/S 596 mmHg 41%
13:00 +25°C° 0 mm 4 m/S 596 mmHg 40%
14:00 +26°C° 0 mm 5 m/S 595 mmHg 40%
15:00 +25°C° 0 mm 4 m/S 595 mmHg 45%
16:00 +22°C° 0 mm 4 m/S 594 mmHg 51%
17:00 +21°C° 0 mm 3 m/S 594 mmHg 56%
18:00 +19°C° 0 mm 2 m/S 594 mmHg 64%
19:00 +17°C° 0 mm 2 m/S 593 mmHg 71%
20:00 +15°C° 0 mm 1 m/S 593 mmHg 78%
21:00 +15°C° 0 mm 1 m/S 593 mmHg 81%
22:00 +14°C° 0 mm 1 m/S 593 mmHg 83%
23:00 +13°C° 0 mm 0 m/S 593 mmHg 86%

23 September, Mittwoch

Zeit Temperatur Niederschläge Wind Luftdruck Luftfeuchtigkeit
00:00 +13°C° 0 mm 0 m/S 593 mmHg 85%
01:00 +12°C° 0 mm 0 m/S 592 mmHg 85%
02:00 +12°C° 0 mm 0 m/S 592 mmHg 84%
03:00 +12°C° 0 mm 0 m/S 592 mmHg 84%
04:00 +11°C° 0 mm 0 m/S 592 mmHg 83%
05:00 +11°C° 0 mm 0 m/S 592 mmHg 83%
06:00 +13°C° 0 mm 0 m/S 593 mmHg 75%
07:00 +16°C° 0 mm 0 m/S 594 mmHg 66%
08:00 +18°C° 0 mm 0 m/S 595 mmHg 58%
09:00 +22°C° 0 mm 1 m/S 596 mmHg 52%
10:00 +23°C° 0 mm 2 m/S 596 mmHg 46%
11:00 +25°C° 0 mm 2 m/S 596 mmHg 40%
12:00 +25°C° 0 mm 3 m/S 596 mmHg 39%
13:00 +26°C° 0 mm 4 m/S 595 mmHg 38%
14:00 +26°C° 0 mm 4 m/S 595 mmHg 37%
15:00 +25°C° 0 mm 4 m/S 594 mmHg 43%
16:00 +23°C° 0 mm 4 m/S 594 mmHg 49%
17:00 +21°C° 0 mm 4 m/S 594 mmHg 55%
18:00 +20°C° 0 mm 3 m/S 593 mmHg 64%
19:00 +18°C° 0 mm 2 m/S 593 mmHg 72%
20:00 +16°C° 0 mm 1 m/S 593 mmHg 81%
21:00 +15°C° 0 mm 1 m/S 593 mmHg 83%
22:00 +15°C° 0 mm 1 m/S 592 mmHg 86%
23:00 +13°C° 0 mm 0 m/S 592 mmHg 88%

24 September, Donnerstag

Zeit Temperatur Niederschläge Wind Luftdruck Luftfeuchtigkeit
00:00 +13°C° 0 mm 0 m/S 592 mmHg 88%
01:00 +12°C° 0 mm 0 m/S 591 mmHg 88%
02:00 +12°C° 0 mm 0 m/S 591 mmHg 88%
03:00 +12°C° 0 mm 0 m/S 591 mmHg 88%
04:00 +12°C° 0 mm 0 m/S 591 mmHg 88%
05:00 +11°C° 0 mm 0 m/S 591 mmHg 87%
06:00 +14°C° 0 mm 0 m/S 592 mmHg 78%
07:00 +16°C° 0 mm 0 m/S 594 mmHg 69%
08:00 +18°C° 0 mm 0 m/S 595 mmHg 59%
09:00 +22°C° 0 mm 1 m/S 595 mmHg 52%
10:00 +23°C° 0 mm 2 m/S 595 mmHg 44%
11:00 +24°C° 0 mm 2 m/S 596 mmHg 36%
12:00 +25°C° 0 mm 3 m/S 595 mmHg 35%
13:00 +25°C° 0 mm 3 m/S 595 mmHg 35%
14:00 +25°C° 0 mm 4 m/S 595 mmHg 34%
15:00 +23°C° 0 mm 4 m/S 594 mmHg 40%
16:00 +21°C° 0 mm 5 m/S 594 mmHg 46%
17:00 +20°C° 0 mm 5 m/S 593 mmHg 52%
18:00 +18°C° 0 mm 4 m/S 593 mmHg 56%
19:00 +17°C° 0 mm 2 m/S 593 mmHg 60%
20:00 +16°C° 0 mm 1 m/S 594 mmHg 64%
21:00 +15°C° 0 mm 1 m/S 593 mmHg 65%
22:00 +14°C° 0 mm 1 m/S 593 mmHg 65%
23:00 +13°C° 0 mm 0 m/S 593 mmHg 65%

25 September, Freitag

Zeit Temperatur Niederschläge Wind Luftdruck Luftfeuchtigkeit
00:00 +12°C° 0 mm 0 m/S 593 mmHg 64%
01:00 +13°C° 0 mm 1 m/S 592 mmHg 63%
02:00 +13°C° 0 mm 1 m/S 592 mmHg 62%
03:00 +12°C° 0 mm 1 m/S 592 mmHg 62%
04:00 +12°C° 0 mm 1 m/S 592 mmHg 62%
05:00 +12°C° 0 mm 1 m/S 592 mmHg 62%
06:00 +14°C° 0 mm 1 m/S 593 mmHg 54%
07:00 +15°C° 0 mm 0 m/S 594 mmHg 47%
08:00 +17°C° 0 mm 0 m/S 595 mmHg 39%
09:00 +21°C° 0 mm 1 m/S 595 mmHg 35%
10:00 +22°C° 0 mm 1 m/S 596 mmHg 32%
11:00 +24°C° 0 mm 2 m/S 596 mmHg 28%
12:00 +24°C° 0 mm 3 m/S 596 mmHg 28%
13:00 +25°C° 0 mm 4 m/S 595 mmHg 28%
14:00 +25°C° 0 mm 4 m/S 595 mmHg 29%
15:00 +23°C° 0 mm 4 m/S 594 mmHg 36%
16:00 +21°C° 0 mm 4 m/S 594 mmHg 43%
17:00 +20°C° 0 mm 4 m/S 593 mmHg 50%
18:00 +18°C° 0 mm 3 m/S 593 mmHg 55%
19:00 +16°C° 0 mm 2 m/S 593 mmHg 59%
20:00 +15°C° 0 mm 1 m/S 593 mmHg 64%
21:00 +14°C° 0 mm 1 m/S 593 mmHg 65%
22:00 +14°C° 0 mm 1 m/S 593 mmHg 65%
23:00 +13°C° 0 mm 0 m/S 593 mmHg 65%
Mehr zeigen